Starlink 37288

operational
NORAD ID: 68552 Int'l Des: 2026-070 Owner: SPXS Country: US Constellation: starlink
LEOCIRCULAR

Über Starlink 37288

Beschreibung wird geladen...

Live-Position

3D-Globus wird geladen...

Nächste Überflüge

Höhenverlauf

Altitude vs Time

uPlot chart will show altitude changes over time

Zweizeiliger Elementsatz

1 68552C 26070K 26093.92409722 -.00216200 00000+0 -26527-3 0 938
2 68552 53.1618 259.4724 0007821 287.1727 65.9586 16.07269022 12
Epoch: 3. Apr. 2026 • Age: 30 hours

Aktueller Status

Höhe 259.8 km
Geschwindigkeit 7.75 km/s
Subsatellitenpunkt 25.06°N, 130.5°E
Startdatum 2. Apr. 2026
Alter 1 days
Typ internet

Technische Details

Klassifizierung Payload
Masse 575.00 kg
Trockenmasse 530.00 kg
Gesamtmasse 575.00 kg
Länge 0.30 m
Durchmesser 4.10 m
Spannweite 29.00 m
Form Box + pan
Hersteller SPXS
Bus-Typ Starlink V2MO
Phasenstatus In Orbit
Besitzer/Staat SPXS/US

Große Konstellationen

Loading constellations...